Temp
-8 -8 -8 -8 -8 -8 -9 -10 -9 -9 -9 -9 -8 -8 -8 -8 -8 -8 -9 -9 -9 -9 -9 -8 -8 -8 -8 -8 -8 -8 -6 -6 -6 -7 -7 -8 -8 -8 -8 -8 -7 -4 -4 -5 -6
-8 -8 -9 -9 -9 -9 -9 -10 -10 -10 -9 -9 -9 -9 -9 -8 -8 -9 -9 -9 -9 -9 -9 -8 -8 -8 -8 -8 -8 -7 -8 -6 -7 -7 -9 -8 -9 -9 -8 -8 -7 -6 -4 -5 -6
-8 -9 -9 -9 -9 -9 -10 -10 -11 -10 -10 -10 -9 -9 -9 -9 -8 -9 -9 -9 -9 -9 -9 -9 -8 -8 -8 -8 -8 -8 -7 -8 -8 -8 -9 -8 -8 -9 -9 -8 -8 -7 -5 -6 -6
-9 -9 -9 -9 -10 -10 -10 -11 -11 -10 -10 -10 -10 -10 -9 -9 -9 -9 -9 -9 -9 -9 -9 -9 -8 -8 -8 -8 -8 -8 -8 -9 -8 -9 -8 -9 -8 -8 -9 -9 -9 -8 -7 -6 -7
-9 -9 -10 -10 -10 -10 -11 -11 -11 -11 -11 -10 -10 -10 -10 -10 -9 -9 -9 -9 -10 -10 -9 -9 -9 -9 -8 -9 -8 -9 -9 -9 -10 -8 -9 -9 -9 -9 -9 -9 -9 -8 -7 -7 -7
-9 -9 -10 -11 -11 -11 -11 -11 -11 -11 -11 -11 -10 -10 -10 -10 -10 -10 -10 -10 -10 -10 -10 -10 -9 -9 -9 -9 -9 -9 -9 -10 -11 -10 -9 -11 -9 -9 -9 -10 -9 -8 -7 -6 -7
-8 -10 -11 -11 -11 -11 -11 -11 -11 -12 -11 -11 -11 -11 -11 -10 -10 -10 -10 -10 -10 -10 -10 -10 -10 -9 -9 -9 -9 -9 -9 -10 -10 -10 -10 -11 -9 -9 -9 -9 -9 -8 -7 -6 -6
-8 -9 -10 -11 -12 -12 -12 -12 -11 -12 -12 -12 -11 -11 -11 -11 -10 -10 -10 -10 -10 -10 -10 -10 -10 -10 -9 -9 -9 -9 -9 -9 -8 -10 -9 -10 -7 -9 -9 -10 -9 -9 -7 -6 -6
-9 -10 -10 -11 -12 -12 -12 -12 -12 -12 -12 -12 -11 -11 -11 -11 -11 -11 -10 -11 -11 -10 -10 -11 -10 -10 -10 -9 -9 -9 -9 -9 -9 -10 -9 -9 -8 -8 -9 -9 -9 -9 -8 -7 -6
-9 -10 -10 -11 -12 -12 -12 -12 -12 -12 -12 -12 -12 -12 -11 -12 -11 -11 -11 -11 -11 -11 -11 -10 -10 -10 -10 -10 -9 -9 -9 -9 -9 -9 -11 -11 -9 -9 -9 -10 -10 -10 -8 -8 -7
-10 -11 -11 -11 -12 -12 -12 -12 -12 -12 -13 -13 -12 -12 -12 -12 -12 -12 -12 -11 -11 -11 -11 -11 -10 -10 -10 -10 -10 -10 -10 -9 -9 -10 -11 -11 -10 -9 -10 -10 -10 -10 -9 -8 -7
-11 -11 -11 -11 -12 -13 -13 -13 -12 -12 -13 -13 -13 -13 -13 -12 -12 -12 -12 -12 -12 -11 -11 -11 -10 -11 -11 -11 -11 -10 -10 -9 -9 -10 -11 -12 -11 -10 -10 -11 -11 -10 -10 -9 -9
-11 -11 -12 -12 -12 -13 -13 -13 -13 -13 -13 -13 -13 -13 -13 -13 -12 -12 -12 -12 -12 -12 -12 -11 -11 -11 -11 -11 -11 -10 -10 -10 -10 -10 -11 -12 -11 -11 -12 -11 -11 -11 -11 -10 -10
-12 -12 -12 -12 -12 -13 -13 -13 -13 -13 -13 -13 -13 -13 -13 -13 -13 -13 -13 -13 -12 -12 -12 -12 -12 -12 -11 -12 -12 -11 -10 -11 -11 -11 -11 -11 -11 -11 -11 -11 -11 -11 -11 -10 -10
-12 -12 -12 -13 -13 -13 -13 -13 -13 -13 -13 -13 -13 -13 -13 -13 -14 -13 -13 -13 -13 -13 -13 -12 -12 -12 -13 -12 -14 -12 -12 -12 -12 -12 -11 -11 -12 -11 -11 -11 -9 -10 -10 -10 -11
-12 -13 -13 -13 -13 -13 -13 -13 -13 -14 -14 -15 -15 -15 -14 -14 -14 -14 -14 -14 -14 -14 -13 -12 -13 -13 -13 -14 -15 -14 -13 -13 -13 -12 -13 -10 -11 -10 -11 -10 -10 -10 -10 -11 -11
-13 -13 -13 -13 -13 -14 -14 -14 -14 -14 -15 -15 -14 -13 -13 -14 -15 -16 -16 -15 -14 -14 -14 -14 -13 -13 -13 -15 -15 -15 -15 -13 -13 -14 -11 -9 -11 -9 -10 -10 -10 -11 -10 -10 -11
-13 -13 -13 -14 -14 -14 -14 -14 -15 -15 -15 -14 -14 -14 -15 -16 -14 -15 -15 -16 -16 -16 -15 -15 -14 -14 -14 -14 -15 -15 -15 -14 -13 -13 -11 -12 -12 -9 -10 -10 -11 -12 -11 -11 -11
-13 -14 -14 -14 -14 -15 -15 -15 -15 -15 -14 -15 -15 -15 -15 -15 -14 -14 -15 -16 -16 -16 -15 -15 -13 -15 -14 -14 -15 -14 -15 -14 -15 -14 -14 -13 -13 -10 -11 -12 -11 -12 -11 -12 -12
-14 -14 -15 -15 -15 -15 -16 -16 -15 -15 -15 -15 -15 -16 -15 -15 -15 -16 -16 -16 -17 -17 -16 -16 -14 -13 -14 -15 -15 -15 -14 -15 -15 -15 -14 -13 -13 -11 -12 -12 -12 -12 -11 -12 -12
-14 -15 -15 -15 -15 -15 -16 -16 -16 -16 -15 -16 -16 -16 -16 -16 -16 -16 -17 -17 -16 -16 -15 -15 -15 -13 -14 -15 -15 -15 -15 -15 -15 -15 -15 -14 -13 -13 -13 -13 -13 -13 -13 -12 -12
-15 -15 -16 -15 -16 -16 -16 -16 -17 -16 -16 -16 -17 -17 -16 -16 -16 -17 -17 -18 -17 -17 -16 -15 -15 -14 -13 -14 -15 -14 -14 -15 -15 -15 -15 -14 -13 -13 -12 -13 -13 -13 -13 -13 -13
-15 -15 -15 -16 -16 -17 -17 -17 -17 -17 -17 -17 -18 -18 -18 -18 -18 -17 -17 -18 -18 -17 -17 -17 -16 -15 -15 -14 -15 -16 -16 -15 -15 -15 -15 -15 -14 -13 -14 -14 -14 -13 -13 -13 -13
-15 -15 -16 -15 -16 -16 -17 -17 -18 -18 -18 -18 -18 -18 -18 -18 -19 -18 -18 -18 -19 -18 -18 -17 -17 -17 -17 -16 -15 -16 -16 -16 -15 -15 -15 -15 -13 -14 -15 -14 -14 -14 -13 -13 -13
-16 -16 -16 -16 -17 -18 -17 -18 -18 -18 -18 -19 -19 -19 -19 -20 -20 -20 -20 -20 -20 -21 -20 -19 -18 -18 -18 -17 -17 -16 -16 -16 -16 -15 -15 -14 -14 -14 -15 -14 -15 -14 -14 -14 -13
-17 -17 -18 -18 -18 -18 -18 -18 -18 -19 -19 -20 -21 -21 -22 -22 -23 -23 -23 -23 -22 -21 -22 -22 -20 -20 -19 -18 -18 -18 -17 -17 -17 -16 -16 -14 -15 -15 -15 -15 -15 -15 -15 -14 -14
-18 -18 -18 -19 -19 -19 -19 -19 -20 -20 -21 -22 -22 -23 -24 -24 -23 -24 -24 -24 -25 -24 -24 -24 -24 -22 -20 -20 -20 -19 -17 -18 -19 -18 -17 -16 -14 -16 -15 -16 -15 -16 -15 -15 -14
Height
5855 5852 5848 5845 5842 5839 5836 5834 5833 5832 5831 5831 5831 5832 5834 5835 5837 5839 5844 5845 5850 5852 5854 5857 5861 5866 5869 5874 5877 5876 5879 5890 5897 5901 5905 5905 5908 5917 5915 5904 5901 5907 5918 5925 5925
5851 5847 5844 5841 5837 5834 5831 5828 5827 5826 5825 5824 5825 5825 5827 5829 5831 5836 5835 5839 5843 5846 5849 5851 5856 5859 5863 5868 5870 5870 5877 5886 5893 5898 5894 5898 5901 5911 5909 5902 5899 5903 5914 5919 5920
5847 5843 5839 5835 5832 5828 5825 5823 5821 5820 5819 5818 5818 5819 5820 5822 5826 5828 5830 5834 5837 5839 5843 5846 5849 5851 5856 5860 5866 5866 5870 5881 5882 5889 5886 5892 5897 5900 5902 5901 5897 5898 5906 5912 5914
5842 5838 5834 5829 5825 5822 5819 5817 5816 5814 5813 5812 5811 5812 5813 5815 5820 5823 5825 5828 5830 5833 5836 5839 5843 5846 5850 5854 5859 5859 5864 5870 5879 5880 5881 5886 5890 5897 5894 5897 5896 5897 5900 5905 5908
5836 5832 5827 5822 5818 5816 5813 5811 5809 5808 5806 5806 5805 5805 5807 5809 5812 5815 5818 5820 5823 5826 5830 5833 5835 5839 5844 5848 5852 5853 5859 5864 5865 5867 5872 5878 5883 5889 5889 5889 5888 5890 5895 5900 5904
5830 5824 5820 5815 5811 5807 5806 5804 5802 5802 5801 5800 5799 5800 5801 5802 5805 5809 5811 5813 5816 5820 5823 5826 5830 5833 5837 5841 5845 5847 5851 5857 5860 5861 5865 5868 5877 5880 5888 5887 5881 5879 5887 5897 5900
5822 5817 5811 5806 5803 5800 5799 5797 5796 5795 5795 5794 5794 5794 5795 5795 5799 5801 5805 5805 5809 5813 5816 5820 5823 5825 5830 5834 5837 5840 5843 5847 5852 5859 5861 5864 5870 5872 5883 5880 5878 5877 5882 5891 5895
5816 5809 5803 5798 5795 5793 5791 5790 5789 5788 5788 5788 5788 5789 5789 5789 5791 5795 5797 5799 5803 5806 5810 5812 5815 5818 5822 5826 5829 5832 5835 5841 5850 5852 5858 5858 5865 5874 5877 5871 5872 5872 5877 5883 5887
5810 5804 5797 5792 5789 5786 5785 5784 5783 5782 5782 5782 5783 5784 5784 5785 5786 5788 5791 5793 5795 5799 5802 5805 5807 5812 5816 5819 5822 5826 5832 5836 5843 5846 5849 5850 5856 5869 5869 5868 5866 5864 5870 5878 5880
5804 5798 5793 5787 5784 5782 5779 5778 5777 5777 5777 5777 5777 5779 5781 5781 5781 5782 5784 5786 5789 5791 5795 5798 5802 5806 5809 5812 5818 5822 5823 5829 5834 5841 5840 5841 5845 5854 5858 5860 5859 5858 5864 5870 5871
5799 5794 5789 5785 5781 5778 5775 5774 5774 5774 5773 5773 5773 5773 5774 5775 5776 5777 5778 5779 5782 5784 5788 5791 5793 5798 5804 5806 5810 5813 5814 5818 5825 5833 5826 5829 5835 5842 5849 5850 5852 5854 5856 5860 5863
5795 5790 5786 5781 5778 5775 5772 5769 5769 5768 5771 5768 5768 5770 5769 5768 5770 5771 5773 5775 5775 5778 5780 5782 5785 5793 5795 5798 5801 5804 5807 5811 5818 5821 5820 5822 5826 5833 5835 5841 5845 5847 5849 5851 5855
5791 5787 5782 5779 5776 5773 5770 5767 5765 5763 5764 5767 5764 5766 5765 5765 5764 5764 5765 5767 5770 5771 5772 5774 5782 5783 5787 5790 5793 5796 5799 5804 5807 5813 5811 5814 5817 5820 5822 5826 5836 5839 5839 5841 5842
5787 5783 5779 5776 5774 5770 5768 5765 5762 5760 5760 5760 5759 5761 5759 5758 5759 5759 5759 5761 5763 5765 5766 5767 5772 5774 5776 5780 5785 5787 5794 5794 5796 5800 5803 5808 5805 5812 5817 5820 5822 5829 5830 5831 5832
5784 5779 5776 5772 5769 5767 5765 5762 5759 5758 5757 5753 5751 5754 5753 5755 5753 5754 5754 5754 5756 5758 5758 5764 5763 5766 5768 5772 5777 5778 5782 5784 5786 5787 5794 5797 5797 5806 5809 5810 5818 5823 5823 5822 5824
5779 5776 5771 5769 5766 5762 5759 5757 5756 5756 5754 5752 5749 5747 5749 5747 5748 5747 5747 5749 5749 5748 5749 5752 5754 5755 5759 5765 5769 5772 5772 5775 5776 5779 5779 5788 5795 5796 5798 5803 5809 5814 5817 5821 5822
5773 5770 5766 5763 5760 5757 5753 5752 5752 5750 5747 5743 5739 5739 5741 5743 5743 5742 5742 5741 5742 5741 5741 5743 5746 5750 5752 5754 5759 5762 5762 5764 5767 5767 5771 5784 5781 5784 5793 5796 5801 5803 5806 5811 5812
5767 5763 5759 5756 5753 5750 5747 5746 5742 5741 5733 5736 5736 5736 5736 5736 5735 5734 5735 5734 5735 5732 5730 5731 5734 5740 5747 5746 5749 5751 5754 5756 5756 5758 5764 5768 5766 5781 5787 5788 5792 5792 5795 5801 5804
5760 5756 5753 5749 5745 5742 5740 5737 5729 5730 5730 5730 5731 5726 5726 5726 5727 5727 5725 5726 5727 5718 5717 5720 5722 5730 5734 5739 5745 5745 5746 5749 5750 5753 5753 5757 5763 5771 5776 5777 5779 5782 5786 5788 5791
5753 5749 5746 5741 5736 5733 5730 5727 5722 5722 5716 5721 5719 5717 5715 5715 5717 5715 5717 5713 5708 5708 5706 5707 5709 5718 5723 5726 5730 5733 5738 5740 5738 5739 5741 5747 5753 5761 5765 5765 5768 5773 5775 5779 5782
5746 5741 5737 5732 5727 5724 5720 5717 5715 5708 5705 5707 5706 5703 5701 5700 5702 5706 5705 5699 5694 5694 5694 5695 5698 5706 5710 5718 5722 5722 5724 5726 5729 5731 5731 5736 5744 5757 5756 5758 5761 5762 5768 5772 5775
5738 5733 5727 5721 5718 5713 5707 5706 5701 5694 5693 5691 5688 5688 5686 5686 5685 5686 5687 5682 5677 5682 5681 5684 5687 5688 5700 5708 5711 5711 5713 5708 5713 5720 5723 5729 5736 5746 5745 5745 5750 5749 5749 5755 5761
5727 5721 5716 5713 5709 5704 5698 5693 5688 5682 5679 5677 5675 5672 5671 5671 5667 5667 5669 5667 5664 5664 5666 5674 5671 5673 5681 5692 5700 5698 5699 5696 5697 5700 5704 5715 5725 5742 5741 5739 5740 5739 5732 5742 5744
5716 5711 5705 5699 5695 5690 5685 5679 5675 5672 5669 5665 5661 5657 5656 5655 5650 5648 5648 5648 5650 5646 5650 5653 5657 5656 5660 5668 5673 5679 5683 5685 5688 5692 5699 5702 5713 5729 5728 5729 5729 5728 5726 5724 5727
5705 5698 5694 5688 5682 5676 5670 5666 5663 5658 5653 5648 5645 5640 5636 5633 5631 5629 5627 5624 5628 5623 5625 5627 5634 5636 5639 5644 5654 5661 5670 5670 5672 5683 5683 5699 5700 5712 5707 5709 5705 5714 5715 5719 5716
5694 5689 5682 5676 5670 5665 5658 5654 5649 5644 5639 5633 5629 5625 5621 5617 5614 5611 5609 5606 5602 5606 5599 5605 5605 5608 5617 5626 5630 5636 5647 5657 5663 5665 5666 5676 5686 5693 5692 5694 5693 5695 5699 5700 5705
5682 5675 5669 5664 5657 5652 5645 5642 5637 5630 5627 5621 5618 5614 5612 5610 5608 5605 5601 5596 5588 5582 5578 5581 5581 5586 5590 5602 5601 5607 5637 5636 5641 5647 5654 5660 5680 5682 5678 5680 5682 5685 5686 5690 5700
Wind_Speed
27 26 27 27 26 26 26 26 25 26 26 27 30 30 29 26 27 25 23 28 26 26 29 36 36 42 40 38 38 41 47 41 36 33 26 10 7 21 27 35 33 29 19 15 18
28 28 27 27 27 26 26 25 26 26 27 26 27 30 29 28 27 23 30 28 28 27 28 34 36 43 42 40 40 46 42 40 37 30 34 21 14 23 27 35 40 33 22 17 21
29 29 29 28 27 27 26 25 25 25 26 27 26 26 29 30 26 26 27 27 30 29 29 31 40 42 46 42 40 42 44 33 43 39 39 27 19 19 30 35 41 38 31 20 23
30 30 30 30 30 28 28 26 25 24 25 26 25 26 27 28 29 25 26 27 31 31 30 29 36 42 45 44 42 45 41 36 43 39 45 37 22 24 26 32 37 40 36 30 26
33 32 32 32 33 32 29 28 25 26 23 25 26 25 25 26 28 26 27 28 29 31 29 30 31 42 44 45 43 47 39 34 37 46 47 44 33 35 23 28 38 42 36 33 28
38 37 35 35 34 33 32 30 29 27 24 24 24 24 23 24 26 25 24 27 29 30 32 31 29 37 46 46 45 45 43 37 38 36 34 40 41 34 36 25 38 43 37 29 30
41 40 37 36 35 32 31 30 30 29 27 25 24 21 22 25 21 25 25 29 29 29 31 32 32 34 41 50 48 47 46 45 42 37 38 41 43 44 33 37 38 42 39 27 26
43 41 34 32 31 30 29 28 27 27 26 25 24 22 20 22 22 21 24 30 27 30 30 33 36 35 39 48 55 54 50 49 46 42 41 49 40 41 45 43 45 48 42 33 31
42 35 30 28 26 27 26 25 24 24 23 22 23 22 21 19 19 21 21 27 30 30 32 33 36 37 37 41 46 50 55 51 47 43 45 43 44 38 44 51 54 54 47 37 36
38 31 29 26 22 23 23 23 21 21 20 21 20 21 21 20 19 18 21 24 28 32 32 35 34 33 35 38 40 44 54 52 51 43 44 47 49 36 40 47 47 50 47 42 44
35 30 25 25 23 21 21 20 20 19 18 20 19 18 21 21 19 19 19 22 26 30 33 33 35 35 33 35 37 38 40 44 49 52 54 50 49 40 37 43 46 49 49 49 46
32 28 23 21 22 21 19 20 20 21 14 18 18 13 16 19 20 19 22 21 21 26 29 35 36 32 34 37 37 37 40 44 42 46 33 34 45 47 36 38 42 45 46 49 47
30 25 23 20 19 19 17 17 19 19 18 15 22 18 16 18 17 16 21 23 23 23 28 32 30 32 33 34 36 38 40 39 40 37 30 26 29 36 42 52 40 44 48 46 45
27 25 23 22 20 19 17 17 15 17 16 14 18 14 18 15 17 15 19 20 24 25 24 28 26 31 35 36 32 38 38 36 39 38 42 34 37 30 30 40 43 38 46 48 46
25 24 23 22 22 20 20 18 16 16 17 20 20 11 13 11 17 18 18 20 20 24 27 24 27 27 30 30 23 37 34 35 39 42 46 48 46 40 37 44 36 33 45 50 50
26 23 25 25 24 23 23 23 20 14 9 12 20 25 13 16 14 16 19 17 21 22 28 29 29 30 29 34 29 35 35 41 43 43 40 44 49 48 55 52 47 38 41 44 45
29 27 27 27 27 27 25 25 21 12 16 18 23 22 18 17 16 14 22 26 21 24 26 27 28 30 33 30 30 34 40 39 39 39 46 42 46 50 49 50 42 29 29 40 39
32 30 29 30 30 30 29 26 25 20 31 26 27 30 26 25 21 25 27 23 30 32 30 26 31 29 27 39 36 38 41 34 42 43 44 44 44 44 41 45 40 36 32 33 34
34 31 31 34 33 31 29 25 33 35 33 29 23 31 32 33 30 30 29 30 25 33 34 34 36 25 31 33 39 38 34 34 36 36 42 40 37 41 26 20 30 42 41 36 38
34 34 34 35 35 32 30 29 35 34 38 32 31 33 38 39 35 37 34 36 39 42 37 41 44 35 32 33 30 33 28 35 36 39 37 41 38 37 26 22 33 41 45 42 42
36 39 36 34 34 31 30 32 33 38 42 37 36 38 39 40 39 35 39 42 49 49 51 51 49 43 40 35 36 39 35 43 42 36 37 38 36 28 30 18 34 37 41 45 48
39 40 35 33 33 34 36 34 35 41 42 42 42 41 43 44 46 46 46 49 56 54 54 54 53 54 45 41 46 47 37 37 43 46 45 40 40 36 40 34 37 34 42 52 55
43 40 38 31 31 31 34 37 41 45 44 43 42 43 45 47 50 52 52 53 58 63 64 60 61 61 56 48 46 51 54 45 39 48 56 47 37 33 40 40 36 35 45 39 49
44 43 39 41 40 40 40 38 39 41 42 43 47 47 48 50 54 58 57 59 57 63 66 69 69 68 68 63 60 60 58 59 56 50 38 44 39 34 35 36 37 36 37 39 41
44 43 43 43 44 46 41 40 44 44 46 49 47 48 50 49 49 49 53 56 55 56 64 69 72 75 76 75 69 67 63 69 69 62 55 51 49 42 49 42 38 39 38 45 47
46 45 43 46 47 42 40 43 44 47 50 45 43 43 41 37 37 33 35 39 50 51 59 63 70 74 75 76 79 76 71 65 68 72 72 63 54 49 57 64 58 56 50 44 46
46 47 46 47 47 42 43 42 44 45 38 38 35 28 21 19 11 14 20 25 28 31 38 55 67 72 77 73 78 83 73 74 70 67 74 75 62 52 51 65 63 65 63 60 51
Wind_Direction
349 344 336 329 323 314 303 289 281 272 270 266 259 257 255 255 251 248 242 232 233 232 223 218 220 217 219 224 229 237 215 209 204 206 195 147 163 262 264 270 264 252 214 231 246
342 338 331 323 316 311 305 293 284 277 271 268 264 257 255 252 251 245 237 230 231 232 228 218 218 218 220 223 226 236 231 211 206 206 196 165 155 248 253 257 262 264 222 229 249
332 329 324 318 310 303 297 293 283 278 274 271 265 262 254 252 250 238 240 234 232 235 233 223 217 220 219 222 227 235 235 227 206 205 201 171 169 210 255 249 262 266 252 245 256
326 321 315 308 301 297 293 286 282 275 273 272 268 263 257 253 250 247 243 239 234 232 234 226 222 223 220 223 223 234 238 228 216 201 215 185 183 199 232 251 260 266 265 249 254
324 316 307 301 299 293 289 284 282 278 276 271 268 264 260 254 250 244 241 235 233 233 232 231 221 222 221 222 223 229 237 229 236 210 206 195 194 202 216 255 256 258 258 248 251
327 319 308 301 294 291 288 284 279 277 275 274 270 266 261 256 250 243 241 239 235 233 230 230 223 222 222 222 224 226 226 225 225 243 220 204 191 202 214 218 251 254 253 237 243
329 322 313 303 296 291 289 288 284 277 275 272 272 271 264 260 251 248 233 237 233 233 230 229 227 223 222 221 223 226 228 226 226 222 233 230 207 214 208 230 244 259 259 249 241
329 326 321 310 298 293 291 288 286 282 276 270 267 267 269 265 256 248 239 235 236 231 231 229 229 225 224 223 226 228 229 233 230 231 227 230 229 214 221 232 246 254 256 257 256
330 332 327 320 309 298 295 290 286 284 275 271 267 264 263 264 263 257 243 234 232 231 231 231 232 231 228 227 229 235 233 235 237 233 234 242 237 223 225 232 241 249 254 255 260
334 334 329 326 316 305 300 293 287 284 277 275 269 268 262 261 259 257 250 243 236 232 231 235 234 235 232 234 233 236 237 237 235 233 237 244 237 233 224 229 228 244 252 254 254
336 332 329 328 323 315 308 301 291 281 276 279 277 277 267 260 260 248 252 247 244 237 234 233 235 232 234 235 235 235 234 236 237 236 249 247 242 236 227 232 240 248 255 255 254
334 329 330 329 327 323 316 308 299 288 275 278 281 283 287 280 267 260 250 252 249 245 236 234 234 234 233 234 236 237 236 237 237 235 231 252 257 256 237 231 240 246 252 256 258
329 327 329 331 327 323 322 314 309 300 291 264 275 280 283 279 278 269 255 254 248 245 244 241 235 229 232 234 238 239 237 236 241 239 218 234 242 247 238 237 234 249 247 249 255
326 325 323 324 322 320 315 313 310 309 311 290 279 272 261 276 284 283 274 256 252 249 246 244 235 234 227 227 232 233 237 237 241 233 218 222 233 223 233 245 254 237 248 252 254
323 320 319 317 315 312 308 303 300 303 308 306 310 300 285 274 280 269 263 269 259 252 248 243 237 227 230 224 230 242 231 225 231 242 228 218 226 220 229 242 247 243 245 246 247
318 318 315 314 311 306 303 300 295 293 296 323 301 297 276 276 273 273 266 266 267 252 250 246 238 229 222 212 229 244 244 233 232 239 238 233 231 242 225 241 246 250 243 244 255
314 314 313 311 308 304 300 295 289 286 215 229 249 275 277 274 264 230 280 285 268 267 256 253 247 245 235 216 224 236 244 244 236 229 239 238 227 240 239 243 247 236 233 235 243
312 313 312 312 314 308 299 293 281 254 233 250 254 262 278 273 250 233 240 243 275 284 273 259 243 241 232 222 225 230 239 244 239 238 246 237 238 237 248 250 248 227 229 236 243
311 313 314 315 312 307 299 288 274 273 269 267 271 267 257 259 264 258 238 228 236 245 243 258 250 240 235 220 238 250 241 244 247 249 250 249 244 239 239 239 233 227 233 230 236
313 313 315 315 311 306 296 283 283 287 282 279 270 259 260 263 261 262 259 238 228 232 242 240 249 242 233 214 214 239 239 227 236 243 241 244 242 245 225 252 247 225 233 229 236
315 316 316 317 310 306 293 287 286 280 278 278 274 270 264 263 261 249 246 240 250 246 238 242 246 242 239 217 218 230 239 224 232 238 240 241 233 216 214 214 230 238 231 239 240
319 321 317 317 309 304 297 291 281 278 281 280 275 270 265 263 260 257 249 246 244 248 241 250 253 254 243 233 222 229 237 222 226 228 237 244 247 215 213 241 226 224 227 230 230
322 324 318 314 301 295 290 283 282 278 280 281 280 278 273 270 268 264 259 257 251 246 243 245 247 254 251 240 229 228 229 227 233 223 217 232 243 229 228 239 245 239 243 240 236
324 323 318 314 306 299 290 287 291 297 297 290 287 285 280 275 275 273 268 264 259 256 252 248 242 246 250 245 236 225 226 230 232 234 234 224 234 208 216 229 239 234 234 222 227
323 319 316 309 304 302 294 293 300 298 296 297 294 291 290 286 281 277 272 269 262 257 252 249 247 246 243 245 243 242 232 228 232 230 236 226 230 217 217 213 234 228 233 232 235
319 317 314 309 310 306 301 301 301 303 302 297 295 296 295 296 301 305 300 290 278 259 255 249 249 247 242 244 244 240 238 238 233 232 234 231 221 219 222 224 222 242 240 230 239
320 316 314 310 311 307 305 304 307 305 297 297 299 294 299 302 313 321 330 338 321 292 269 244 243 245 246 244 243 241 238 238 236 232 234 233 227 220 235 227 229 233 234 239 238